This is the latest recevied weather packets stored in our database for station/object OK1KZE-6. If no packets are shown the sender has not sent any weather packets the latest 10 day(s).
| Time | Temp. | Humidity | Pressure | Rain* | Wind** | Luminosity | Snow |
|---|---|---|---|---|---|---|---|
| 1777607708 | 5.56° C | 65% | 1030.6 hPa | - | - | - | - |
| 1777607409 | 5.56° C | 65% | 1030.4 hPa | - | - | - | - |
| 1777607108 | 6.11° C | 62% | 1030.3 hPa | - | - | - | - |
| 1777606808 | 5.56° C | 64% | 1030.3 hPa | - | - | - | - |
| 1777606508 | 6.11° C | 63% | 1030.4 hPa | - | - | - | - |
| 1777606209 | 6.67° C | 61% | 1030.5 hPa | - | - | - | - |
| 1777605907 | 6.67° C | 61% | 1030.5 hPa | - | - | - | - |
| 1777605608 | 6.11° C | 61% | 1030.5 hPa | - | - | - | - |
| 1777605308 | 5.56° C | 62% | 1030.6 hPa | - | - | - | - |
| 1777605007 | 5.56° C | 63% | 1030.8 hPa | - | - | - | - |
| 1777604708 | 5.56° C | 62% | 1030.6 hPa | - | - | - | - |
| 1777604407 | 5.56° C | 62% | 1030.6 hPa | - | - | - | - |
| 1777604107 | 5.56° C | 63% | 1030.5 hPa | - | - | - | - |
| 1777603808 | 5.56° C | 62% | 1030.5 hPa | - | - | - | - |
| 1777603508 | 5.56° C | 63% | 1030.4 hPa | - | - | - | - |
| 1777603207 | 5° C | 64% | 1030.6 hPa | - | - | - | - |
| 1777602908 | 5° C | 65% | 1030.6 hPa | - | - | - | - |
| 1777602308 | 5.56° C | 63% | 1030.5 hPa | - | - | - | - |
| 1777602008 | 5.56° C | 63% | 1030.5 hPa | - | - | - | - |
| 1777601708 | 5.56° C | 63% | 1030.6 hPa | - | - | - | - |
| 1777601408 | 6.11° C | 62% | 1030.6 hPa | - | - | - | - |
| 1777601108 | 6.11° C | 61% | 1030.3 hPa | - | - | - | - |
| 1777600808 | 6.11° C | 60% | 1030.4 hPa | - | - | - | - |
| 1777600507 | 6.67° C | 60% | 1030.6 hPa | - | - | - | - |
| 1777599908 | 6.67° C | 59% | 1030.5 hPa | - | - | - | - |
* Rain since midnight (hover to see other rain measurements)
** Current wind speed in m/s (hover to see current wind gust speed)